Content
SEND FEEDBACK

Daily
Averages
Monthly
Summary
United States of America

LIBERTY, KENTUCKY


Home > North America > United States > Kentucky
Elevation: 23 meters     Latitude: 37 21N     Longitude: 084 55W

WEATHER
 
SELECT A DAY
Number of Records: 149,337;   Date Range: 3/25/08 - 7/21/14
 
SHARE

PRINT THIS DATA

[ ← Previous Day ]
WEATHER ALMANAC - 31 JANUARY, 2013
[ Next Day → ]
[ °F ]   °C
Weather ElementAverageHighLow
Temperature-0.4 °C1 °C (2:35 pm)-4 °C (11:35 pm)
Dewpoint-4.9 °C0 °C (10:35 pm)-8 °C (5:55 am)
Humidity72.6 %100 % (10:35 pm)60 % (11:15 am)
Barometer1013.5 hPa1017.6 hPa (11:55 pm)1006.8 hPa (12:35 am)
Wind Speed22.2 km/h38.9 km/h (1:55 am)
Wind Gust64.9 km/h (11:15 pm)
Weather ElementAverage
Visibility14 km
Wind DirectionW (271.5 °)

Weather ElementTotal
Precipitation---
Heating Degree Days19.8 (Base 18.3)
Averaged from 71 records on 31 January, 2013
WEATHER CONDITIONS BREAKOUT
WIND DIRECTION BREAKOUT
WEATHER BY HOUR - 31 JANUARY, 2013
[ °F ]   °C
Local TimeTemperatureDewpointHumidityBarometerVisibilityWind DirectionWind SpeedGust SpeedPrecipitationEventsConditions
12:35 AM0 °C-2 °C87 %1006.8 hPa16.1 kmWest (270°)27.8 km/h51.8 km/hOvercast
12:55 AM0 °C-3 °C80 %1007.5 hPa16.1 kmWest (280°)18.5 km/h44.4 km/hOvercast
1:15 AM0 °C-3 °C80 %1007.8 hPa16.1 kmWest (280°)29.6 km/h38.9 km/hSnowLight Snow
1:35 AM0 °C-4 °C75 %1008.1 hPa16.1 kmWest (270°)31.5 km/h50.1 km/hOvercast
1:55 AM0 °C-5 °C69 %1008.5 hPa16.1 kmWNW (290°)38.9 km/h48.1 km/hOvercast
2:15 AM0 °C-4 °C75 %1008.8 hPa16.1 kmWest (280°)18.5 km/h38.9 km/hSnowLight Snow
2:35 AM0 °C-3 °C80 %1009.1 hPa11.3 kmWest (280°)31.5 km/h53.8 km/hSnowLight Snow
2:55 AM0 °C-4 °C75 %1009.5 hPa16.1 kmWNW (290°)24.1 km/h51.8 km/hSnowLight Snow
3:15 AM-1 °C-5 °C75 %1009.8 hPa16.1 kmWNW (290°)29.6 km/h40.7 km/hSnowLight Snow
3:35 AM-1 °C-5 °C75 %1010.2 hPa16.1 kmWNW (300°)22.2 km/h38.9 km/hSnowLight Snow
3:55 AM-1 °C-5 °C75 %1010.5 hPa16.1 kmWNW (300°)24.1 km/h40.7 km/hSnowLight Snow
4:15 AM-1 °C-6 °C69 %1010.5 hPa16.1 kmWNW (300°)18.5 km/hSnowLight Snow
4:35 AM-2 °C-5 °C80 %1010.8 hPa11.3 kmWNW (290°)25.9 km/h35.2 km/hSnowLight Snow
4:55 AM-2 °C-5 °C80 %1011.2 hPa11.3 kmWest (280°)13 km/h29.6 km/hSnowLight Snow
5:15 AM-2 °C-4 °C86 %1011.2 hPa8 kmWest (270°)14.8 km/hSnowLight Snow
5:35 AM-2 °C-6 °C74 %1011.5 hPa16.1 kmWest (270°)20.4 km/h37 km/hSnowLight Snow
5:55 AM-2 °C-8 °C64 %1011.5 hPa16.1 kmWNW (290°)29.6 km/h51.8 km/hOvercast
6:15 AM-2 °C-7 °C69 %1011.9 hPa16.1 kmWest (270°)22.2 km/h37 km/hOvercast
6:35 AM-2 °C-6 °C74 %1012.2 hPa16.1 kmWest (280°)13 km/h37 km/hSnowLight Snow
6:55 AM-2 °C-6 °C74 %1012.5 hPa11.3 kmWest (270°)18.5 km/h27.8 km/hSnowLight Snow
7:15 AM-2 °C-6 °C74 %1012.9 hPa16.1 kmWest (270°)16.7 km/h25.9 km/hSnowLight Snow
7:35 AM-2 °C-6 °C74 %1012.9 hPa16.1 kmWest (260°)20.4 km/h29.6 km/hOvercast
7:55 AM-1 °C-7 °C64 %1013.2 hPa16.1 kmWest (270°)25.9 km/h42.6 km/hOvercast
8:15 AM-1 °C-7 °C64 %1013.5 hPa16.1 kmWest (270°)16.7 km/h35.2 km/hOvercast
8:35 AM-1 °C-7 °C64 %1013.9 hPa16.1 kmWest (260°)24.1 km/h35.2 km/hOvercast
8:55 AM-2 °C-7 °C69 %1014.6 hPa16.1 kmWest (280°)18.5 km/h37 km/hOvercast
9:15 AM-2 °C-7 °C69 %1014.9 hPa11.3 kmWNW (290°)24.1 km/h38.9 km/hSnowLight Snow
9:35 AM-2 °C-6 °C74 %1014.9 hPa8 kmWest (270°)22.2 km/h29.6 km/hSnowLight Snow
9:55 AM-1 °C-6 °C69 %1015.6 hPa16.1 kmWest (270°)22.2 km/h38.9 km/hSnowLight Snow
10:15 AM-1 °C-6 °C69 %1015.6 hPa16.1 kmWest (260°)27.8 km/h44.4 km/hOvercast
10:35 AM-1 °C-6 °C69 %1015.6 hPa16.1 kmWest (280°)16.7 km/h37 km/hOvercast
10:55 AM-1 °C-7 °C64 %1015.9 hPa16.1 kmWest (280°)27.8 km/h44.4 km/hOvercast
11:15 AM0 °C-7 °C60 %1016.3 hPa16.1 kmWest (280°)24.1 km/h35.2 km/hOvercast
11:35 AM-1 °C-6 °C69 %1016.3 hPa16.1 kmWest (260°)16.7 km/h33.3 km/hOvercast
11:55 AM0 °C-6 °C64 %1016.3 hPa16.1 kmWest (280°)20.4 km/h29.6 km/hOvercast
12:15 PM0 °C-6 °C64 %1016.3 hPa16.1 kmWest (260°)25.9 km/h33.3 km/hOvercast
12:35 PM0 °C-6 °C64 %1015.9 hPa16.1 kmWest (260°)25.9 km/h44.4 km/hSnowLight Snow
12:55 PM0 °C-5 °C69 %1015.6 hPa16.1 kmWest (270°)25.9 km/h38.9 km/hOvercast
1:15 PM0 °C-6 °C64 %1015.6 hPa16.1 kmWest (260°)29.6 km/h40.7 km/hOvercast
1:35 PM0 °C-6 °C64 %1015.6 hPa16.1 kmWest (270°)31.5 km/h51.8 km/hOvercast
1:55 PM0 °C-6 °C64 %1014.9 hPa16.1 kmWest (270°)27.8 km/h46.3 km/hOvercast
2:15 PM0 °C-6 °C64 %1014.6 hPa16.1 kmWest (270°)25.9 km/h35.2 km/hMostly Cloudy
2:35 PM1 °C-6 °C60 %1014.9 hPa16.1 kmWest (270°)18.5 km/h35.2 km/hOvercast
2:55 PM1 °C-6 °C60 %1014.9 hPa16.1 kmWest (280°)22.2 km/h31.5 km/hOvercast
3:15 PM1 °C-6 °C60 %1014.9 hPa16.1 kmWest (280°)18.5 km/h33.3 km/hOvercast
3:35 PM1 °C-6 °C60 %1014.9 hPa16.1 kmWest (280°)25.9 km/h37 km/hOvercast
3:55 PM1 °C-6 °C60 %1014.9 hPa16.1 kmWest (270°)20.4 km/h37 km/hOvercast
4:15 PM1 °C-6 °C60 %1014.6 hPa16.1 kmWest (270°)16.7 km/h33.3 km/hMostly Cloudy
4:35 PM1 °C-6 °C60 %1014.6 hPa16.1 kmWest (270°)22.2 km/h29.6 km/hMostly Cloudy
4:55 PM1 °C-6 °C60 %1014.2 hPa16.1 kmWest (270°)16.7 km/h33.3 km/hMostly Cloudy
5:15 PM1 °C-6 °C60 %1014.2 hPa16.1 kmWest (270°)13 km/hMostly Cloudy
5:35 PM1 °C-5 °C65 %1014.6 hPa16.1 kmWSW (250°)16.7 km/hOvercast
5:55 PM1 °C-5 °C65 %1014.6 hPa16.1 kmWSW (250°)16.7 km/h29.6 km/hOvercast
6:15 PM1 °C-5 °C65 %1014.6 hPa16.1 kmWest (260°)16.7 km/hOvercast
6:35 PM1 °C-5 °C65 %1014.6 hPa16.1 kmWSW (250°)16.7 km/h31.5 km/hOvercast
6:55 PM1 °C-5 °C65 %1014.6 hPa16.1 kmWSW (250°)13 km/hOvercast
7:15 PM1 °C-5 °C65 %1014.9 hPa16.1 kmWSW (240°)18.5 km/h29.6 km/hOvercast
7:35 PM1 °C-3 °C75 %1015.2 hPa16.1 kmWSW (250°)18.5 km/h35.2 km/hSnowLight Snow
7:55 PM1 °C-2 °C81 %1014.9 hPa16.1 kmWSW (250°)14.8 km/hOvercast
8:15 PM1 °C-2 °C81 %1014.6 hPa16.1 kmWSW (250°)18.5 km/h31.5 km/hSnowLight Snow
8:35 PM0 °C-2 °C87 %1014.6 hPa16.1 kmWSW (250°)22.2 km/h31.5 km/hSnowLight Snow
8:55 PM0 °C-1 °C93 %1014.2 hPa11.3 kmWSW (240°)14.8 km/h27.8 km/hSnowLight Snow
9:15 PM0 °C-1 °C93 %1013.9 hPa6.4 kmWSW (240°)18.5 km/h27.8 km/hSnowLight Snow
9:35 PM0 °C-1 °C93 %1013.9 hPa6.4 kmWSW (240°)16.7 km/hSnowLight Snow
9:55 PM0 °C-1 °C93 %1013.9 hPa8 kmWSW (240°)14.8 km/hSnowLight Snow
10:15 PM0 °C-1 °C93 %1013.9 hPa6.4 kmWest (260°)20.4 km/h27.8 km/hSnowLight Snow
10:35 PM0 °C0 °C100 %1014.6 hPa1.3 kmWest (280°)18.5 km/h31.5 km/hSnowSnow
10:55 PM0 °C-2 °C87 %1014.6 hPa3.2 kmWest (280°)35.2 km/h50.1 km/hSnowLight Snow
11:15 PM-2 °C-4 °C86 %1015.9 hPa0.8 kmNW (310°)35.2 km/h64.9 km/hSnowSnow
11:35 PM-4 °C-5 °C93 %1016.9 hPa1.3 kmNW (320°)37 km/h51.8 km/hSnowLight Snow
11:55 PM-4 °C-6 °C86 %1017.6 hPa3.2 kmNW (320°)27.8 km/h38.9 km/hSnowLight Snow
Hourly data recorded from KDVK, located 0 kilometers away from Liberty, Kentucky







STORIES FROM OUR PARTNERS